This demonstration page uses our WeatherBlox Daily Observations layout. Learn more.

Left ArrowRight Arrow

39.01783, -85.05884

Hourly Observations for October 6, 2015

Temp ( °F °C ) Dew Point ( °F °C ) Humidity (%) Winds ( mph kmh ) Pressure ( in mb ) Visibility ( mi km ) Precip ( " mm )
12:52 am 00:52 Cloudy 65 18.3 57 13.9 76 76 ENE 5 7 30.06 1018 10 16 N/A
1:52 am 01:52 Mostly Cloudy 63 17.2 56 13.3 78 78 ENE 5 7 30.05 1018 10 16 N/A
2:52 am 02:52 Mostly Cloudy 62 16.7 55 12.8 78 78 N N/A 30.04 1017 10 16 N/A
3:52 am 03:52 Cloudy 62 16.7 56 13.3 80 80 NNE 3 6 30.04 1017 10 16 N/A
4:52 am 04:52 Mostly Cloudy 60 15.6 56 13.3 86 86 E 3 6 30.04 1017 10 16 N/A
5:52 am 05:52 Mostly Cloudy 60 15.6 54 12.2 80 80 N N/A 30.05 1018 10 16 N/A
6:52 am 06:52 Mostly Cloudy with Patchy Fog 58 14.4 55 12.8 90 90 NE 5 7 30.05 1018 8 13 N/A
7:52 am 07:52 Mostly Cloudy 57 13.9 54 12.2 90 90 NNE 5 7 30.05 1018 9 14 N/A
8:52 am 08:52 Mostly Cloudy 61 16.1 56 13.3 84 84 N N/A 30.08 1019 9 14 N/A
9:52 am 09:52 Mostly Cloudy 66 18.9 54 12.2 65 65 N N/A 30.10 1019 10 16 N/A
10:52 am 10:52 Mostly Cloudy 69 20.6 52 11.1 55 55 N N/A 30.10 1019 10 16 N/A
11:52 am 11:52 Mostly Cloudy 71 21.7 51 10.6 49 49 N N/A 30.10 1019 10 16 N/A
12:52 pm 12:52 Mostly Cloudy 74 23.3 52 11.1 46 46 N N/A 30.09 1019 10 16 N/A
1:52 pm 13:52 Mostly Cloudy 76 24.4 51 10.6 42 42 N 3 6 30.07 1018 10 16 N/A
2:52 pm 14:52 Mostly Cloudy 76 24.4 54 12.2 47 47 NNW 5 7 30.06 1018 10 16 N/A
3:52 pm 15:52 Mostly Cloudy 76 24.4 55 12.8 48 48 N 3 6 30.04 1017 10 16 N/A
4:52 pm 16:52 Mostly Cloudy 75 23.9 55 12.8 50 50 NNW 6 9 30.04 1017 10 16 N/A
5:52 pm 17:52 Mostly Cloudy 76 24.4 55 12.8 48 48 NNW 5 7 30.03 1017 10 16 N/A
6:52 pm 18:52 Mostly Cloudy 74 23.3 54 12.2 50 50 NNW 3 6 30.03 1017 10 16 N/A
7:52 pm 19:52 Partly Cloudy 69 20.6 55 12.8 61 61 N N/A 30.04 1017 10 16 N/A
8:52 pm 20:52 Mostly Clear 66 18.9 57 13.9 73 73 N N/A 30.04 1017 10 16 N/A
9:52 pm 21:52 Mostly Clear 62 16.7 55 12.8 78 78 N N/A 30.05 1018 10 16 N/A
10:52 pm 22:52 Mostly Clear 63 17.2 55 12.8 76 76 N N/A 30.05 1018 10 16 N/A
11:52 pm 23:52 Mostly Clear 63 17.2 56 13.3 78 78 N N/A 30.05 1018 10 16 N/A

Powered by AerisWeather